Wind_Speed
23 24 24 25 23 22 22 22 22 20 19 18 17 17 17 16 16 16 16 15 15 16 15 15 15 15 15 16 16 16 17 18 18 19 19 20 21 21 21 21 21 21 20 20
25 25 25 25 25 24 22 22 22 22 20 19 18 19 19 19 19 18 17 17 17 17 17 18 18 18 17 17 17 18 18 19 19 20 21 21 22 22 22 22 23 22 22 21
26 26 27 27 26 24 23 23 24 23 22 21 20 20 20 20 20 20 18 19 19 19 19 20 20 19 19 19 20 20 21 21 22 22 23 23 23 23 23 23 23 23 22 22
28 28 29 27 25 25 24 24 24 23 22 22 23 24 23 22 22 22 21 20 20 20 21 21 21 22 21 21 21 22 22 23 24 24 25 25 25 24 24 24 23 23 23 22
29 29 29 28 27 26 26 27 26 24 23 24 24 25 25 25 24 25 24 24 23 23 23 23 23 24 23 23 24 25 25 25 25 26 26 26 26 26 25 25 25 25 24 23
30 30 30 29 28 28 28 29 27 27 26 26 27 28 27 27 27 27 27 27 26 26 25 25 25 26 26 27 27 27 26 26 27 27 27 27 27 27 27 26 26 26 25 25
30 30 29 29 29 28 30 29 29 29 29 28 29 29 28 28 28 28 29 29 28 28 28 28 28 28 28 28 28 28 27 27 27 27 28 28 28 28 28 28 27 27 25 26
31 30 30 29 29 29 29 29 30 30 30 30 29 28 29 30 30 30 29 30 30 30 29 29 30 30 29 29 29 29 28 28 28 29 29 29 29 29 30 29 28 28 27 27
32 32 30 30 31 30 29 30 31 31 31 31 30 30 30 31 31 31 31 31 31 31 31 30 31 30 30 29 29 28 28 29 29 30 30 30 31 31 31 30 29 29 29 29
32 31 30 30 31 30 30 29 29 30 30 31 30 30 30 30 31 31 31 32 32 32 32 32 32 31 30 29 29 29 29 30 30 30 30 30 31 31 31 31 31 31 31 30
33 32 30 30 30 30 30 29 29 30 31 31 31 31 30 30 30 31 32 33 32 32 32 33 32 32 31 30 29 30 30 31 31 30 31 31 31 31 31 31 31 31 31 30
32 32 31 31 30 30 30 30 30 30 30 30 31 31 31 31 31 32 33 32 32 32 32 32 31 31 31 30 30 29 29 29 30 30 30 31 31 31 31 31 31 31 31 30
31 30 30 30 30 29 29 29 29 30 30 30 30 31 31 31 31 31 32 32 32 32 32 31 31 32 31 31 29 29 29 29 29 29 30 30 31 31 31 31 31 31 31 30
30 29 29 29 30 30 30 31 30 30 31 31 31 31 31 31 31 32 31 31 31 32 32 32 32 30 29 29 29 28 29 29 30 30 30 31 31 31 31 31 30 30 30 30
29 29 30 30 30 30 31 31 31 30 30 30 30 30 30 30 30 30 31 31 30 30 30 30 30 29 29 29 29 29 29 29 30 30 30 30 31 31 31 31 31 30 30 30
30 30 30 30 30 30 30 31 31 30 28 28 28 29 29 29 29 29 29 30 29 29 29 29 28 29 30 30 30 29 29 30 30 30 30 30 31 31 31 31 31 31 31 31
27 28 29 28 29 29 28 27 27 27 27 27 28 28 29 28 29 28 28 28 28 28 29 29 29 30 30 30 29 29 29 29 29 29 30 30 30 30 30 30 31 31 31 30
27 29 29 29 27 26 26 25 25 26 27 28 28 29 29 28 28 27 26 27 27 28 28 29 29 29 29 29 29 28 28 29 29 30 30 30 30 31 31 30 30 30 30 29
26 27 28 27 27 27 28 27 26 27 27 28 28 28 28 28 27 27 26 27 27 27 28 28 29 30 28 27 27 28 28 29 30 30 30 30 31 30 30 29 29 29 29 28
25 26 27 27 27 27 27 27 27 27 28 28 28 28 28 28 28 28 27 27 27 27 28 29 29 29 28 28 28 28 28 28 29 29 29 29 29 29 29 29 28 28 28 28
24 24 25 26 27 27 28 28 28 28 28 29 28 28 28 27 27 27 27 27 27 27 28 28 29 29 28 28 28 28 27 28 28 28 28 28 28 28 28 27 27 27 27 27
21 22 22 23 24 25 26 26 26 27 27 28 27 27 27 27 27 27 27 27 27 27 27 27 28 28 28 28 28 27 27 27 28 28 28 28 28 27 27 27 27 27 27 27
19 20 21 22 23 23 24 24 24 25 25 25 25 25 26 26 26 26 26 26 25 26 26 27 27 27 27 27 27 27 27 27 27 27 27 27 26 26 27 27 27 27 27 27
18 18 19 19 20 21 22 22 23 23 23 23 23 23 23 24 24 24 24 24 24 24 25 26 26 26 26 26 26 26 26 26 25 24 24 25 26 26 26 26 26 26 27 27
17 18 19 19 20 20 21 21 22 22 21 21 21 21 22 22 22 22 22 23 23 23 24 25 25 25 26 25 25 25 25 25 24 24 24 25 25 25 25 25 26 26 26 26
16 17 18 19 20 20 20 20 20 20 20 19 19 20 20 20 21 21 22 23 23 23 24 24 24 24 25 24 24 24 23 24 24 24 24 24 24 24 25 25 25 25 25 26
18 18 19 19 19 19 18 18 18 18 18 18 18 18 19 19 19 21 21 22 22 22 22 22 22 23 23 23 23 23 23 23 23 23 23 23 24 24 24 24 24 24 24 24
Wind_Direction
233 233 237 240 243 245 246 251 258 263 268 271 275 279 283 285 290 296 299 301 302 302 299 297 296 297 299 297 299 303 303 305 307 309 310 310 309 308 307 306 304 303 300 297
237 236 238 241 245 247 247 249 255 261 266 267 270 277 280 284 286 290 292 295 295 299 300 296 295 295 296 297 299 300 299 301 303 304 306 307 307 305 305 303 303 301 299 298
239 239 241 241 246 249 250 250 254 258 263 264 266 271 276 283 285 287 287 287 291 295 296 299 295 289 291 297 299 299 299 300 302 304 305 305 306 305 305 303 302 301 298 298
241 242 242 244 248 248 251 254 256 258 261 262 265 269 273 280 283 284 288 287 289 290 294 294 293 291 293 294 295 296 296 298 300 301 302 303 303 303 303 302 302 301 299 297
244 246 247 246 249 250 250 253 256 260 262 263 265 270 274 275 279 281 284 287 289 290 291 291 291 292 294 294 292 294 294 296 298 299 300 301 301 301 302 302 302 299 298 297
245 249 249 247 248 249 250 253 256 260 263 265 268 270 274 276 278 280 284 288 288 289 290 291 290 290 290 293 292 293 294 294 295 297 299 299 300 300 300 300 300 298 296 294
246 249 251 248 248 248 249 252 257 260 264 266 268 270 272 274 276 278 282 284 286 286 287 288 289 288 291 292 292 294 294 294 294 295 295 297 298 298 297 297 297 297 295 293
246 248 250 250 251 252 255 254 257 261 263 265 268 270 271 272 274 277 280 282 284 285 287 288 289 290 291 291 291 292 293 292 293 292 292 293 295 296 297 295 295 294 292 292
248 250 252 252 253 255 256 255 257 261 264 267 269 271 274 275 274 276 277 279 281 284 286 288 289 290 290 289 289 289 290 291 292 292 291 292 294 295 295 296 295 296 295 293
248 252 253 254 255 255 255 255 258 260 263 267 271 273 276 277 276 277 277 279 281 284 286 288 289 290 289 288 288 289 291 293 293 292 292 293 294 294 294 294 295 295 295 294
249 253 255 255 254 255 256 258 260 261 265 268 270 272 274 275 275 276 278 279 281 284 286 287 288 289 290 287 287 289 290 291 291 291 293 294 294 295 295 295 296 296 295 295
249 251 252 254 256 256 257 259 262 265 266 269 271 273 274 275 275 277 278 279 281 283 284 285 286 288 287 288 288 288 289 290 291 291 292 293 294 294 295 296 296 297 297 296
247 249 251 253 256 256 257 260 264 266 268 270 271 272 273 275 276 276 278 279 281 283 283 285 286 287 287 286 287 288 290 291 292 292 292 293 293 294 296 296 297 298 297 296
249 252 255 256 256 257 257 260 262 265 267 267 267 269 271 273 274 276 277 280 281 281 283 286 288 287 288 288 289 290 290 291 292 294 293 293 294 294 295 297 298 298 297 298
251 253 254 255 257 259 259 260 262 265 267 267 268 269 270 271 273 274 278 281 283 283 284 286 287 288 289 289 290 291 291 291 293 294 294 294 294 294 295 296 298 299 299 299
250 253 254 254 256 259 260 261 263 263 264 266 269 270 270 271 272 275 279 281 282 283 285 286 286 287 288 289 290 291 291 292 294 294 294 294 293 293 294 296 297 297 298 298
251 253 255 256 259 260 259 258 261 264 267 269 272 273 271 271 274 277 279 280 281 282 284 285 286 286 288 289 289 290 291 292 293 294 295 295 294 293 294 296 297 297 298 298
255 257 258 258 259 258 257 259 262 267 270 271 272 273 273 274 277 278 278 279 281 282 284 286 287 288 288 288 289 291 292 294 294 294 294 295 294 294 294 295 297 298 298 298
258 258 259 259 259 260 260 260 264 268 270 272 273 274 276 279 279 279 281 282 281 282 283 285 287 288 289 290 291 292 293 294 295 294 294 294 294 294 294 295 297 298 298 297
260 261 260 259 260 260 260 262 266 269 271 272 274 275 276 278 279 280 280 282 282 284 284 283 285 287 289 290 291 292 293 294 295 295 294 295 296 295 295 295 296 298 298 298
262 263 262 262 262 263 264 266 268 270 271 272 274 274 275 276 277 278 278 280 282 283 285 285 286 288 290 291 292 292 293 294 295 295 294 294 296 296 295 295 296 297 297 298
266 266 264 263 264 264 265 266 268 269 270 271 273 273 274 275 276 277 279 280 281 282 284 286 287 288 289 291 291 292 293 294 295 294 293 293 295 295 295 295 296 296 297 298
266 266 265 265 266 265 264 266 268 270 271 272 272 273 274 274 276 279 279 279 281 283 284 286 288 290 291 291 291 291 293 295 295 294 294 294 294 295 296 296 295 296 297 298
264 265 264 266 267 267 267 268 270 272 272 272 273 273 273 275 277 279 281 283 285 285 286 287 289 290 291 292 292 291 291 292 294 296 296 296 297 297 298 297 296 297 298 299
264 265 264 265 267 269 270 271 271 270 270 270 272 273 275 277 279 281 283 286 287 287 287 289 291 292 292 292 293 292 290 291 292 294 295 297 298 298 298 297 296 297 299 299
267 269 269 267 267 270 270 271 270 270 270 271 273 275 276 277 279 281 284 286 288 288 288 290 292 294 294 294 294 293 292 293 293 294 295 296 297 298 298 298 299 300 300 301
269 273 273 272 272 271 269 268 269 269 269 270 273 275 278 279 280 282 285 288 289 290 291 291 292 294 294 295 295 294 294 294 294 294 295 296 297 298 299 299 300 301 304 306
Height
5864 5866 5868 5869 5870 5872 5873 5874 5875 5875 5875 5876 5876 5876 5876 5876 5876 5875 5874 5874 5872 5871 5870 5869 5867 5866 5864 5863 5862 5860 5858 5856 5854 5851 5849 5846 5843 5840 5838 5835 5832 5830 5827 5825
5859 5861 5862 5863 5865 5866 5868 5869 5870 5870 5871 5871 5872 5872 5872 5872 5871 5870 5870 5869 5868 5867 5866 5865 5863 5861 5859 5858 5856 5855 5853 5851 5849 5846 5844 5842 5839 5836 5833 5830 5827 5824 5822 5819
5853 5854 5856 5858 5860 5861 5862 5863 5864 5865 5867 5866 5867 5867 5867 5867 5866 5865 5865 5865 5864 5863 5861 5860 5858 5856 5855 5853 5852 5850 5848 5846 5843 5841 5839 5836 5833 5830 5827 5824 5821 5818 5815 5813
5846 5849 5850 5854 5854 5855 5856 5857 5859 5860 5861 5861 5862 5862 5862 5862 5861 5860 5859 5859 5858 5857 5856 5854 5852 5851 5849 5848 5846 5845 5842 5840 5838 5835 5833 5830 5827 5824 5821 5818 5815 5812 5809 5807
5841 5842 5844 5847 5848 5849 5851 5851 5853 5854 5855 5855 5856 5856 5856 5856 5856 5855 5854 5853 5853 5851 5849 5847 5846 5845 5843 5841 5840 5838 5836 5834 5831 5829 5826 5824 5821 5818 5815 5812 5809 5806 5803 5800
5834 5836 5837 5841 5842 5843 5846 5845 5847 5848 5848 5849 5850 5850 5850 5850 5849 5849 5848 5847 5846 5844 5842 5841 5840 5838 5836 5835 5833 5831 5828 5826 5824 5822 5819 5817 5814 5811 5808 5805 5802 5798 5795 5793
5827 5828 5830 5834 5835 5837 5839 5840 5841 5841 5842 5843 5843 5844 5844 5843 5842 5842 5841 5840 5839 5837 5835 5834 5833 5831 5828 5827 5825 5823 5821 5819 5816 5814 5812 5809 5806 5804 5801 5797 5794 5791 5788 5786
5819 5821 5826 5827 5829 5830 5831 5832 5833 5834 5835 5835 5836 5837 5836 5836 5835 5834 5833 5832 5831 5829 5828 5826 5824 5822 5820 5818 5817 5815 5813 5811 5808 5806 5804 5801 5799 5796 5793 5789 5787 5783 5780 5778
5813 5816 5818 5820 5821 5823 5824 5825 5826 5827 5828 5828 5829 5829 5828 5828 5827 5826 5825 5824 5823 5821 5820 5818 5816 5814 5812 5810 5808 5806 5804 5802 5799 5797 5795 5792 5790 5788 5785 5782 5779 5776 5773 5771
5805 5807 5809 5812 5813 5815 5816 5817 5818 5819 5820 5821 5821 5820 5820 5820 5819 5818 5816 5816 5814 5813 5811 5809 5808 5805 5803 5801 5800 5797 5795 5793 5791 5789 5786 5784 5781 5779 5777 5774 5771 5768 5766 5763
5797 5799 5801 5803 5805 5806 5808 5809 5810 5811 5812 5812 5812 5812 5812 5812 5811 5809 5808 5807 5806 5804 5802 5801 5799 5797 5794 5792 5791 5789 5787 5785 5783 5780 5778 5775 5773 5771 5768 5765 5762 5760 5757 5754
5790 5792 5793 5795 5796 5798 5799 5801 5802 5803 5803 5804 5804 5803 5803 5803 5802 5801 5799 5798 5797 5795 5793 5791 5790 5788 5785 5784 5782 5780 5778 5776 5774 5772 5770 5767 5765 5762 5759 5756 5754 5751 5748 5745
5782 5783 5785 5787 5788 5790 5791 5792 5793 5794 5794 5795 5795 5795 5794 5794 5793 5792 5791 5789 5788 5786 5784 5782 5780 5779 5777 5775 5773 5772 5770 5768 5766 5763 5761 5759 5756 5754 5751 5748 5745 5742 5738 5736
5774 5776 5778 5779 5781 5781 5782 5783 5784 5785 5785 5786 5786 5786 5785 5785 5784 5783 5782 5780 5779 5777 5776 5774 5771 5769 5767 5766 5765 5763 5761 5759 5757 5755 5752 5750 5747 5744 5742 5739 5736 5733 5730 5727
5767 5769 5770 5771 5772 5773 5773 5774 5775 5776 5777 5777 5777 5777 5776 5775 5775 5774 5773 5771 5770 5768 5767 5765 5763 5762 5760 5758 5756 5754 5752 5750 5748 5746 5743 5741 5738 5735 5733 5730 5727 5724 5722 5719
5759 5760 5761 5763 5764 5764 5765 5766 5767 5767 5767 5768 5768 5768 5767 5766 5766 5766 5764 5763 5761 5760 5759 5757 5755 5753 5751 5750 5748 5746 5744 5742 5739 5737 5735 5732 5728 5726 5724 5721 5718 5715 5712 5710
5751 5752 5753 5754 5755 5756 5756 5757 5758 5758 5759 5759 5759 5758 5758 5758 5757 5757 5756 5755 5753 5752 5750 5748 5747 5745 5743 5741 5739 5737 5735 5733 5730 5728 5726 5723 5720 5717 5714 5712 5709 5706 5703 5700
5743 5744 5745 5746 5746 5747 5748 5748 5749 5750 5750 5750 5750 5749 5749 5749 5748 5748 5747 5746 5745 5744 5742 5740 5738 5736 5734 5732 5730 5728 5726 5724 5721 5719 5717 5714 5711 5708 5706 5703 5700 5697 5694 5692
5734 5735 5736 5737 5738 5739 5740 5741 5741 5741 5741 5741 5741 5741 5741 5740 5740 5739 5738 5738 5737 5736 5734 5732 5730 5727 5726 5723 5721 5720 5718 5715 5713 5710 5708 5705 5702 5699 5696 5694 5691 5688 5686 5683
5726 5727 5728 5729 5730 5730 5731 5732 5732 5733 5733 5733 5733 5733 5733 5732 5732 5731 5730 5729 5728 5727 5725 5723 5721 5719 5717 5715 5713 5711 5709 5707 5704 5701 5699 5696 5693 5690 5688 5685 5682 5680 5678 5675
5719 5720 5720 5721 5722 5723 5723 5723 5724 5725 5725 5725 5724 5724 5724 5724 5723 5723 5722 5721 5720 5718 5717 5715 5713 5711 5709 5707 5705 5702 5700 5698 5695 5693 5690 5687 5685 5682 5679 5677 5674 5672 5669 5666
5713 5713 5713 5714 5714 5715 5716 5716 5716 5716 5716 5716 5716 5716 5715 5715 5715 5714 5713 5713 5711 5710 5708 5706 5705 5703 5700 5698 5696 5694 5691 5689 5687 5684 5682 5679 5677 5674 5671 5668 5666 5663 5661 5658
5706 5706 5706 5707 5707 5708 5708 5709 5709 5709 5709 5709 5708 5708 5707 5706 5706 5705 5705 5704 5703 5702 5700 5698 5696 5694 5692 5690 5687 5685 5683 5681 5679 5676 5674 5671 5668 5666 5663 5660 5657 5655 5653 5650
5700 5700 5701 5701 5701 5701 5702 5702 5702 5702 5701 5701 5701 5700 5700 5699 5698 5697 5697 5696 5695 5693 5692 5690 5688 5686 5683 5681 5679 5677 5675 5673 5670 5668 5666 5663 5660 5658 5655 5652 5649 5647 5645 5642
5694 5695 5695 5695 5695 5695 5695 5695 5694 5694 5694 5694 5693 5693 5693 5692 5691 5690 5689 5688 5687 5686 5684 5682 5680 5678 5675 5673 5671 5669 5667 5664 5662 5660 5658 5655 5653 5650 5647 5644 5642 5639 5637 5634
5689 5689 5689 5689 5689 5689 5688 5688 5687 5687 5687 5687 5687 5686 5686 5685 5684 5683 5682 5681 5679 5678 5676 5674 5672 5670 5667 5665 5663 5661 5658 5656 5654 5652 5650 5647 5645 5642 5640 5637 5634 5632 5629 5626
5683 5683 5683 5682 5682 5682 5681 5681 5681 5681 5681 5680 5680 5680 5679 5678 5677 5676 5675 5674 5672 5671 5669 5667 5665 5663 5660 5658 5656 5653 5651 5649 5647 5644 5642 5640 5638 5635 5632 5630 5627 5624 5621 5618